This is the latest recevied weather packets stored in our database for station/object EA3ABN-15. If no packets are shown the sender has not sent any weather packets the latest 10 day(s).
| Time | Temp. | Humidity | Pressure | Rain* | Wind** | Luminosity | Snow |
|---|---|---|---|---|---|---|---|
| 1777503112 | 17.78° C | 52% | 1055.3 hPa | - | - | - | - |
| 1777502212 | 17.78° C | 52% | 1055.4 hPa | - | - | - | - |
| 1777501312 | 18.33° C | 52% | 1055.5 hPa | - | - | - | - |
| 1777500412 | 18.33° C | 52% | 1055.5 hPa | - | - | - | - |
| 1777499512 | 18.33° C | 52% | 1055.5 hPa | - | - | - | - |
| 1777498612 | 18.33° C | 53% | 1055.4 hPa | - | - | - | - |
| 1777497711 | 18.33° C | 53% | 1055.4 hPa | - | - | - | - |
| 1777496814 | 18.33° C | 52% | 1055.3 hPa | - | - | - | - |
| 1777495914 | 18.33° C | 51% | 1055.1 hPa | - | - | - | - |
| 1777495013 | 18.33° C | 51% | 1055.1 hPa | - | - | - | - |
| 1777494113 | 18.33° C | 51% | 1054.9 hPa | - | - | - | - |
| 1777493213 | 18.33° C | 51% | 1055 hPa | - | - | - | - |
| 1777492313 | 18.33° C | 51% | 1054.8 hPa | - | - | - | - |
| 1777491413 | 18.33° C | 51% | 1054.6 hPa | - | - | - | - |
| 1777490513 | 18.33° C | 51% | 1054.3 hPa | - | - | - | - |
| 1777489613 | 18.33° C | 51% | 1054 hPa | - | - | - | - |
| 1777488713 | 18.33° C | 52% | 1053.7 hPa | - | - | - | - |
| 1777487813 | 18.33° C | 48% | 1053.4 hPa | - | - | - | - |
| 1777486913 | 18.89° C | 47% | 1053 hPa | - | - | - | - |
| 1777486013 | 18.89° C | 46% | 1052.9 hPa | - | - | - | - |
| 1777485112 | 18.89° C | 44% | 1052.8 hPa | - | - | - | - |
| 1777484212 | 19.44° C | 46% | 1052.8 hPa | - | - | - | - |
| 1777483312 | 19.44° C | 45% | 1052.9 hPa | - | - | - | - |
| 1777482412 | 20° C | 42% | 1052.8 hPa | - | - | - | - |
| 1777481512 | 20° C | 42% | 1052.7 hPa | - | - | - | - |
* Rain since midnight (hover to see other rain measurements)
** Current wind speed in m/s (hover to see current wind gust speed)